This is the latest recevied weather packets stored in our database for station/object K4DFD-13. If no packets are shown the sender has not sent any weather packets the latest 10 day(s).
| Time | Temp. | Humidity | Pressure | Rain* | Wind** | Luminosity | Snow |
|---|---|---|---|---|---|---|---|
| 1777719816 | 6.11° C | 63% | 1014.5 hPa | 0 mm | - | - | - |
| 1777719506 | 6.11° C | 63% | 1014.6 hPa | 0 mm | - | - | - |
| 1777719215 | 6.11° C | 62% | 1014.6 hPa | 0 mm | - | - | - |
| 1777718905 | 5.56° C | 63% | 1014.6 hPa | 0 mm | - | - | - |
| 1777718604 | 6.11° C | 64% | 1014.6 hPa | 0 mm | - | - | - |
| 1777718314 | 6.11° C | 64% | 1014.5 hPa | 0 mm | - | - | - |
| 1777718004 | 6.11° C | 63% | 1014.6 hPa | 0 mm | - | - | - |
| 1777717713 | 6.11° C | 62% | 1014.7 hPa | 0 mm | - | - | - |
| 1777717413 | 6.11° C | 61% | 1014.8 hPa | 0 mm | - | - | - |
| 1777717113 | 6.11° C | 60% | 1014.8 hPa | 0 mm | - | - | - |
| 1777716812 | 6.67° C | 59% | 1014.8 hPa | 0 mm | - | - | - |
| 1777716512 | 6.67° C | 59% | 1014.9 hPa | 0 mm | - | - | - |
| 1777716211 | 6.67° C | 59% | 1014.9 hPa | 0 mm | - | - | - |
| 1777715911 | 6.67° C | 59% | 1014.8 hPa | 0 mm | - | - | - |
| 1777715611 | 6.67° C | 58% | 1014.9 hPa | 0 mm | - | - | - |
| 1777715300 | 6.67° C | 58% | 1014.8 hPa | 0 mm | - | - | - |
| 1777715010 | 6.67° C | 59% | 1014.7 hPa | 0 mm | - | - | - |
| 1777714710 | 6.67° C | 59% | 1014.7 hPa | 0 mm | - | - | - |
| 1777714409 | 7.22° C | 59% | 1014.7 hPa | 0 mm | - | - | - |
| 1777714109 | 7.22° C | 60% | 1014.8 hPa | 0 mm | - | - | - |
| 1777713809 | 7.22° C | 59% | 1014.7 hPa | 0 mm | - | - | - |
| 1777713508 | 7.22° C | 59% | 1014.8 hPa | 0 mm | - | - | - |
| 1777713208 | 7.22° C | 59% | 1014.8 hPa | 0 mm | - | - | - |
| 1777712908 | 7.22° C | 59% | 1015 hPa | 0 mm | - | - | - |
| 1777712607 | 7.78° C | 59% | 1014.9 hPa | 0 mm | - | - | - |
* Rain latest hour (hover to see other rain measurements)
** Current wind speed in m/s (hover to see current wind gust speed)